Location: American Canyon
(38.1966°N, 122.1514°W)
Time: 15:48:21
(UTC+00:00)

CZ-4B R/B - Pass Details

Date: 29 October 2020
Orbit: 389 x 462 km, 97.6° (Epoch: 22 November)

Event Time Altitude Azimuth Distance (km) Brightness Sun altitude
Rises 13:36:20 0° 195° (SSW) 2,479 5.1 -11.5°
Reaches altitude 10° 13:38:41 10° 210° (SSW) 1,608 4.0 -11.1°
Maximum altitude 13:41:27 22° 264° (W) 1,051 2.7 -10.5°
Drops below altitude 10° 13:44:13 10° 317° (NW) 1,606 3.7 -10.0°
Enters shadow 13:45:03 - 324° (NW) 1,898 4.1 -9.8°
